Tiempo cada hora Dabrowka

Hoy, 4 Agosto, Miércoles

Tiempo Temperatura Precipitaciones Viento Presión Humedad
00:00 +14°C° 0 mm 1 mps 751 mmHg 87%
01:00 +13°C° 0 mm 1 mps 751 mmHg 89%
02:00 +13°C° 0 mm 1 mps 751 mmHg 88%
03:00 +13°C° 0 mm 1 mps 751 mmHg 88%
04:00 +13°C° 0 mm 1 mps 751 mmHg 88%
05:00 +14°C° 0 mm 1 mps 751 mmHg 83%
06:00 +15°C° 0 mm 1 mps 751 mmHg 77%
07:00 +18°C° 0 mm 1 mps 751 mmHg 72%
08:00 +19°C° 0 mm 1 mps 751 mmHg 66%
09:00 +20°C° 0 mm 1 mps 751 mmHg 61%
10:00 +21°C° 0 mm 1 mps 751 mmHg 56%
11:00 +20°C° 0.2 mm 2 mps 751 mmHg 58%
12:00 +20°C° 0.2 mm 2 mps 751 mmHg 60%
13:00 +20°C° 0.2 mm 2 mps 751 mmHg 62%
14:00 +19°C° 0 mm 2 mps 751 mmHg 64%
15:00 +19°C° 0 mm 2 mps 751 mmHg 66%
16:00 +19°C° 0 mm 2 mps 751 mmHg 68%
17:00 +18°C° 0 mm 2 mps 751 mmHg 70%
18:00 +18°C° 0 mm 2 mps 751 mmHg 72%
19:00 +18°C° 0 mm 1 mps 751 mmHg 74%
20:00 +16°C° 0 mm 1 mps 751 mmHg 77%
21:00 +16°C° 0 mm 1 mps 751 mmHg 80%
22:00 +15°C° 0 mm 1 mps 751 mmHg 83%
23:00 +14°C° 0 mm 1 mps 751 mmHg 84%

Mañana, 5 Agosto, Jueves

Tiempo Temperatura Precipitaciones Viento Presión Humedad
00:00 +14°C° 0 mm 1 mps 751 mmHg 84%
01:00 +14°C° 0 mm 1 mps 751 mmHg 85%
02:00 +14°C° 0 mm 1 mps 751 mmHg 86%
03:00 +13°C° 0 mm 1 mps 751 mmHg 88%
04:00 +13°C° 0 mm 1 mps 750 mmHg 89%
05:00 +14°C° 0 mm 2 mps 750 mmHg 83%
06:00 +16°C° 0 mm 2 mps 750 mmHg 76%
07:00 +18°C° 0 mm 2 mps 750 mmHg 69%
08:00 +19°C° 0 mm 2 mps 750 mmHg 62%
09:00 +21°C° 0 mm 3 mps 750 mmHg 56%
10:00 +22°C° 0 mm 3 mps 750 mmHg 49%
11:00 +24°C° 0 mm 3 mps 750 mmHg 47%
12:00 +23°C° 0 mm 4 mps 749 mmHg 44%
13:00 +25°C° 0 mm 4 mps 749 mmHg 41%
14:00 +23°C° 0 mm 4 mps 749 mmHg 45%
15:00 +23°C° 0 mm 4 mps 749 mmHg 49%
16:00 +22°C° 0 mm 4 mps 749 mmHg 53%
17:00 +21°C° 0.1 mm 4 mps 749 mmHg 59%
18:00 +20°C° 0.1 mm 3 mps 748 mmHg 65%
19:00 +19°C° 0.1 mm 3 mps 748 mmHg 71%
20:00 +18°C° 0 mm 3 mps 748 mmHg 73%
21:00 +17°C° 0 mm 3 mps 748 mmHg 76%
22:00 +17°C° 0 mm 3 mps 748 mmHg 79%
23:00 +16°C° 0 mm 3 mps 747 mmHg 80%

Pasado mañana, 6 Agosto, Viernes

Tiempo Temperatura Precipitaciones Viento Presión Humedad
00:00 +16°C° 0 mm 2 mps 747 mmHg 81%
01:00 +15°C° 0 mm 2 mps 747 mmHg 83%
02:00 +15°C° 0 mm 2 mps 747 mmHg 84%
03:00 +15°C° 0 mm 2 mps 747 mmHg 86%
04:00 +15°C° 0 mm 2 mps 747 mmHg 88%
05:00 +16°C° 0 mm 2 mps 746 mmHg 83%
06:00 +17°C° 0 mm 3 mps 746 mmHg 78%
07:00 +17°C° 0 mm 3 mps 746 mmHg 74%
08:00 +18°C° 0 mm 4 mps 746 mmHg 68%
09:00 +19°C° 0 mm 4 mps 746 mmHg 62%
10:00 +21°C° 0 mm 5 mps 746 mmHg 56%
11:00 +21°C° 0 mm 4 mps 746 mmHg 53%
12:00 +21°C° 0 mm 4 mps 746 mmHg 50%
13:00 +22°C° 0 mm 4 mps 746 mmHg 48%
14:00 +21°C° 0 mm 4 mps 746 mmHg 51%
15:00 +21°C° 0 mm 3 mps 746 mmHg 54%
16:00 +20°C° 0 mm 3 mps 746 mmHg 57%
17:00 +19°C° 0 mm 3 mps 746 mmHg 61%
18:00 +19°C° 0 mm 2 mps 746 mmHg 65%
19:00 +18°C° 0 mm 2 mps 746 mmHg 69%
20:00 +18°C° 0 mm 2 mps 746 mmHg 70%
21:00 +18°C° 0 mm 1 mps 746 mmHg 70%
22:00 +18°C° 0 mm 1 mps 746 mmHg 71%
23:00 +17°C° 0 mm 2 mps 746 mmHg 72%

7 Agosto, Sábado

Tiempo Temperatura Precipitaciones Viento Presión Humedad
00:00 +17°C° 0 mm 2 mps 746 mmHg 72%
01:00 +16°C° 0 mm 2 mps 746 mmHg 73%
02:00 +16°C° 0 mm 2 mps 746 mmHg 75%
03:00 +15°C° 0 mm 2 mps 746 mmHg 77%
04:00 +14°C° 0 mm 2 mps 746 mmHg 78%
05:00 +16°C° 0 mm 2 mps 746 mmHg 72%
06:00 +17°C° 0 mm 3 mps 746 mmHg 65%
07:00 +19°C° 0 mm 3 mps 747 mmHg 58%
08:00 +21°C° 0 mm 3 mps 747 mmHg 52%
09:00 +23°C° 0 mm 2 mps 747 mmHg 45%
10:00 +25°C° 0 mm 2 mps 747 mmHg 38%
11:00 +26°C° 0 mm 3 mps 746 mmHg 37%
12:00 +27°C° 0 mm 3 mps 746 mmHg 35%
13:00 +27°C° 0 mm 4 mps 746 mmHg 33%
14:00 +27°C° 0 mm 4 mps 746 mmHg 39%
15:00 +26°C° 0 mm 4 mps 746 mmHg 44%
16:00 +25°C° 0 mm 4 mps 746 mmHg 49%
17:00 +24°C° 0 mm 3 mps 746 mmHg 53%
18:00 +24°C° 0 mm 3 mps 746 mmHg 57%
19:00 +23°C° 0 mm 2 mps 746 mmHg 61%
20:00 +21°C° 0 mm 2 mps 746 mmHg 64%
21:00 +20°C° 0 mm 3 mps 747 mmHg 66%
22:00 +19°C° 0 mm 3 mps 747 mmHg 68%
23:00 +19°C° 0 mm 2 mps 747 mmHg 67%

8 Agosto, Domingo

Tiempo Temperatura Precipitaciones Viento Presión Humedad
00:00 +19°C° 0 mm 2 mps 747 mmHg 65%
01:00 +20°C° 0 mm 2 mps 747 mmHg 64%
02:00 +19°C° 0.8 mm 2 mps 747 mmHg 73%
03:00 +19°C° 0.8 mm 1 mps 747 mmHg 83%
04:00 +18°C° 0.8 mm 1 mps 747 mmHg 93%
05:00 +17°C° 2.1 mm 2 mps 747 mmHg 94%
06:00 +17°C° 2.1 mm 2 mps 747 mmHg 95%
07:00 +17°C° 2.1 mm 2 mps 747 mmHg 96%
08:00 +18°C° 0.1 mm 3 mps 747 mmHg 90%
09:00 +19°C° 0.1 mm 4 mps 748 mmHg 84%
10:00 +21°C° 0.1 mm 5 mps 748 mmHg 78%
11:00 +22°C° 0 mm 5 mps 748 mmHg 68%
12:00 +25°C° 0 mm 5 mps 749 mmHg 58%
13:00 +26°C° 0 mm 5 mps 749 mmHg 47%
14:00 +27°C° 0 mm 4 mps 749 mmHg 44%
15:00 +27°C° 0 mm 4 mps 749 mmHg 41%
16:00 +27°C° 0 mm 4 mps 750 mmHg 37%
17:00 +26°C° 0 mm 3 mps 750 mmHg 44%
18:00 +24°C° 0 mm 3 mps 751 mmHg 50%
19:00 +21°C° 0 mm 2 mps 751 mmHg 57%
20:00 +20°C° 0 mm 2 mps 751 mmHg 61%
21:00 +19°C° 0 mm 2 mps 752 mmHg 65%
22:00 +19°C° 0 mm 1 mps 752 mmHg 70%
23:00 +19°C° 0 mm 1 mps 752 mmHg 71%

9 Agosto, Lunes

Tiempo Temperatura Precipitaciones Viento Presión Humedad
00:00 +18°C° 0 mm 1 mps 752 mmHg 73%
01:00 +18°C° 0 mm 1 mps 753 mmHg 75%
02:00 +17°C° 0 mm 2 mps 753 mmHg 73%
03:00 +16°C° 0 mm 2 mps 753 mmHg 72%
04:00 +16°C° 0 mm 2 mps 753 mmHg 71%
05:00 +17°C° 0 mm 2 mps 753 mmHg 68%
06:00 +18°C° 0 mm 2 mps 754 mmHg 65%
07:00 +20°C° 0 mm 2 mps 754 mmHg 61%
08:00 +21°C° 0 mm 3 mps 754 mmHg 56%
09:00 +22°C° 0 mm 3 mps 754 mmHg 51%
10:00 +24°C° 0 mm 3 mps 754 mmHg 46%
11:00 +25°C° 0 mm 3 mps 754 mmHg 43%
12:00 +26°C° 0 mm 3 mps 754 mmHg 39%
13:00 +27°C° 0 mm 3 mps 754 mmHg 35%
14:00 +27°C° 0 mm 3 mps 754 mmHg 36%
15:00 +26°C° 0 mm 3 mps 754 mmHg 36%
16:00 +26°C° 0 mm 3 mps 753 mmHg 37%
17:00 +25°C° 0 mm 2 mps 753 mmHg 44%
18:00 +23°C° 0 mm 2 mps 753 mmHg 51%
19:00 +21°C° 0 mm 2 mps 753 mmHg 58%
20:00 +20°C° 0 mm 2 mps 753 mmHg 64%
21:00 +20°C° 0 mm 1 mps 753 mmHg 69%
22:00 +19°C° 0 mm 1 mps 753 mmHg 75%
23:00 +19°C° 0 mm 1 mps 753 mmHg 74%
Mostrar más

Necesitamos Su Consentimiento

Meteoprog y nuestros Proveedores de Servicios pueden almacenar y acceder a sus datos personales como cookies, identificadores de dispositivo u otras tecnologías similares de su dispositivo y procesar dichos datos para personalizar contenido y anuncios, además de ofrecer funciones de redes sociales y analizar el tráfico.

  • Almacenar y/o acceder a información en su dispositivo

    Se puede almacenar o acceder a cookies, identificadores de dispositivo u otra información de su dispositivo para los fines anteriormente indicados.

  • Anuncios y contenido personalizados, medición de anuncios y contenido, percepciones del público, y desarrollo de productos

    Los anuncios y el contenido pueden personalizarse en base a su perfil. Se pueden añadir más datos para personalizar mejor los anuncios y contenidos. Se puede medir el rendimiento de los anuncios y contenidos. Se puede obtener la percepción sobre el público que ha visto los anuncios y contenidos. Dichos datos pueden usarse para desarrollar o mejorar la experiencia del usuario, sistemas y software.

Al hacer clic en ‘Estoy De Acuerdo’ usted permitirá el uso de las cookies, identificadores de dispositivo, balizas web u otras tecnologías similares indicadas. Su configuración puede cambiarse desde el navegador de su dispositivo.

Para ciertos fines, los intereses legítimos pueden ser considerados por encima del consentimiento. Puede leer más sobre ello en nuestra Política de Privacidad y Cookies.